TimeEDT,TemperatureF,Dew PointF,Humidity,Sea Level PressureIn,VisibilityMPH,Wind Direction,Wind SpeedMPH,Gust SpeedMPH,PrecipitationIn,Events,Conditions,WindDirDegrees,DateUTC
12:15 AM,52.7,48.7,86,30.02,10.0,West,5.8,-,N/A,,Overcast,280,2013-10-18 04:15:00
12:35 AM,52.7,47.8,84,30.02,10.0,West,5.8,-,N/A,,Overcast,270,2013-10-18 04:35:00
12:55 AM,52.2,47.1,83,30.02,10.0,West,5.8,-,N/A,,Overcast,260,2013-10-18 04:55:00
1:15 AM,51.8,46.6,82,30.02,10.0,West,8.1,-,N/A,,Overcast,270,2013-10-18 05:15:00
1:35 AM,51.8,46.0,81,30.02,10.0,West,6.9,-,N/A,,Overcast,280,2013-10-18 05:35:00
1:55 AM,51.3,45.7,81,30.03,10.0,WSW,6.9,-,N/A,,Overcast,250,2013-10-18 05:55:00
2:15 AM,51.1,45.5,81,30.03,10.0,West,5.8,-,N/A,,Overcast,270,2013-10-18 06:15:00
2:35 AM,50.9,45.0,80,30.03,10.0,West,5.8,-,N/A,,Overcast,280,2013-10-18 06:35:00
2:55 AM,50.0,44.6,82,30.04,10.0,West,4.6,-,N/A,,Overcast,260,2013-10-18 06:55:00
3:15 AM,49.3,44.2,83,30.04,10.0,West,3.5,-,N/A,,Overcast,260,2013-10-18 07:15:00
3:35 AM,48.7,43.7,83,30.04,10.0,WSW,3.5,-,N/A,,Overcast,250,2013-10-18 07:35:00
3:55 AM,48.6,43.2,82,30.04,10.0,West,3.5,-,N/A,,Overcast,270,2013-10-18 07:55:00
4:15 AM,47.8,43.7,86,30.04,10.0,Calm,Calm,-,N/A,,Overcast,0,2013-10-18 08:15:00
4:35 AM,46.8,43.2,87,30.04,10.0,Calm,Calm,-,N/A,,Mostly Cloudy,0,2013-10-18 08:35:00
4:55 AM,46.0,43.2,90,30.04,10.0,Calm,Calm,-,N/A,,Scattered Clouds,0,2013-10-18 08:55:00
5:15 AM,45.3,43.0,92,30.04,10.0,Calm,Calm,-,N/A,,Clear,0,2013-10-18 09:15:00
5:35 AM,44.4,42.8,94,30.04,10.0,Calm,Calm,-,N/A,,Clear,0,2013-10-18 09:35:00
5:55 AM,43.9,43.9,100,30.04,7.0,Calm,Calm,-,N/A,,Clear,0,2013-10-18 09:55:00
6:15 AM,43.5,43.5,100,30.05,10.0,Calm,Calm,-,N/A,,Clear,0,2013-10-18 10:15:00
6:35 AM,42.8,42.8,100,30.06,7.0,Calm,Calm,-,N/A,,Clear,0,2013-10-18 10:35:00
6:55 AM,42.4,42.4,100,30.06,5.0,Calm,Calm,-,N/A,,Clear,0,2013-10-18 10:55:00
7:15 AM,41.4,41.4,100,30.07,7.0,Calm,Calm,-,N/A,,Clear,0,2013-10-18 11:15:00
7:35 AM,41.4,41.4,100,30.07,1.8,Calm,Calm,-,N/A,,Mist,0,2013-10-18 11:35:00
7:55 AM,41.0,41.0,100,30.07,3.0,West,4.6,-,N/A,,Scattered Clouds,270,2013-10-18 11:55:00
8:15 AM,41.5,41.5,100,30.08,2.0,Calm,Calm,-,N/A,,Clear,0,2013-10-18 12:15:00
8:35 AM,43.5,43.5,100,30.09,4.0,Calm,Calm,-,N/A,,Clear,0,2013-10-18 12:35:00
8:55 AM,45.7,45.3,99,30.09,10.0,Calm,Calm,-,N/A,,Clear,0,2013-10-18 12:55:00
9:15 AM,47.8,45.7,92,30.10,10.0,WSW,5.8,-,N/A,,Clear,240,2013-10-18 13:15:00
9:35 AM,49.5,45.5,86,30.10,10.0,WSW,6.9,-,N/A,,Clear,250,2013-10-18 13:35:00
9:55 AM,50.9,45.1,81,30.11,10.0,WSW,5.8,-,N/A,,Clear,240,2013-10-18 13:55:00
10:15 AM,52.3,45.7,78,30.11,10.0,SW,5.8,-,N/A,,Clear,230,2013-10-18 14:15:00
10:35 AM,53.8,45.5,74,30.11,10.0,West,4.6,-,N/A,,Mostly Cloudy,280,2013-10-18 14:35:00
10:55 AM,53.8,43.9,69,30.11,10.0,West,4.6,-,N/A,,Scattered Clouds,260,2013-10-18 14:55:00
11:15 AM,55.4,43.7,65,30.11,10.0,WSW,5.8,-,N/A,,Clear,240,2013-10-18 15:15:00
11:35 AM,56.1,44.1,64,30.10,10.0,WSW,6.9,-,N/A,,Clear,240,2013-10-18 15:35:00
11:47 AM,57.2,44.6,63,30.10,10.0,Calm,Calm,-,N/A,,Clear,0,2013-10-18 15:47:00
11:55 AM,56.3,43.9,63,30.10,10.0,West,5.8,-,N/A,,Clear,260,2013-10-18 15:55:00
12:15 PM,56.8,44.6,64,30.10,10.0,WSW,4.6,-,N/A,,Clear,240,2013-10-18 16:15:00
12:28 PM,57.2,44.6,63,30.09,10.0,SW,6.9,-,N/A,,Clear,230,2013-10-18 16:28:00
12:35 PM,57.6,44.1,61,30.09,10.0,SW,4.6,-,N/A,,Clear,220,2013-10-18 16:35:00
12:48 PM,57.2,44.6,63,30.09,10.0,WSW,3.5,-,N/A,,Clear,240,2013-10-18 16:48:00
12:55 PM,59.0,44.8,59,30.09,10.0,SW,8.1,-,N/A,,Clear,230,2013-10-18 16:55:00
1:08 PM,59.0,44.6,59,30.08,10.0,WSW,4.6,-,N/A,,Clear,250,2013-10-18 17:08:00
1:15 PM,58.1,43.3,58,30.08,10.0,SW,3.5,-,N/A,,Clear,220,2013-10-18 17:15:00
1:28 PM,59.0,44.6,59,30.07,10.0,WSW,5.8,-,N/A,,Clear,240,2013-10-18 17:28:00
1:35 PM,59.4,44.1,57,30.07,10.0,SSW,4.6,-,N/A,,Clear,210,2013-10-18 17:35:00
1:55 PM,60.1,43.9,55,30.06,10.0,Calm,Calm,-,N/A,,Clear,0,2013-10-18 17:55:00
2:08 PM,60.8,44.6,55,30.05,10.0,West,5.8,-,N/A,,Clear,260,2013-10-18 18:08:00
2:15 PM,61.3,44.4,54,30.05,10.0,SSW,4.6,-,N/A,,Clear,200,2013-10-18 18:15:00
2:28 PM,62.6,44.6,52,30.04,10.0,SSW,3.5,-,N/A,,Clear,200,2013-10-18 18:28:00
2:35 PM,62.6,44.6,52,30.04,10.0,West,6.9,-,N/A,,Clear,260,2013-10-18 18:35:00
2:40 PM,62.6,44.6,52,30.04,10.0,Calm,Calm,-,N/A,,Clear,0,2013-10-18 18:40:00
2:55 PM,62.2,42.6,49,30.04,10.0,SW,4.6,-,N/A,,Clear,220,2013-10-18 18:55:00
3:15 PM,63.3,42.1,46,30.03,10.0,SW,3.5,-,N/A,,Clear,220,2013-10-18 19:15:00
3:35 PM,63.1,41.5,45,30.03,10.0,SW,4.6,-,N/A,,Clear,220,2013-10-18 19:35:00
3:55 PM,63.1,42.1,46,30.03,10.0,West,6.9,-,N/A,,Clear,260,2013-10-18 19:55:00
4:15 PM,62.8,41.5,46,30.02,10.0,WSW,5.8,-,N/A,,Clear,240,2013-10-18 20:15:00
4:35 PM,63.1,43.5,49,30.02,10.0,SSW,3.5,-,N/A,,Clear,210,2013-10-18 20:35:00
4:55 PM,62.1,42.6,49,30.02,10.0,Calm,Calm,-,N/A,,Clear,0,2013-10-18 20:55:00
5:15 PM,61.9,42.3,49,30.02,10.0,SW,4.6,-,N/A,,Clear,230,2013-10-18 21:15:00
5:35 PM,61.5,43.0,51,30.03,10.0,WSW,4.6,-,N/A,,Clear,240,2013-10-18 21:35:00
5:55 PM,60.1,44.4,56,30.02,10.0,WSW,4.6,-,N/A,,Clear,250,2013-10-18 21:55:00
6:15 PM,59.9,43.5,55,30.02,10.0,WSW,3.5,-,N/A,,Clear,240,2013-10-18 22:15:00
6:35 PM,59.2,43.9,57,30.03,10.0,Calm,Calm,-,N/A,,Clear,0,2013-10-18 22:35:00
6:55 PM,57.6,45.5,64,30.03,10.0,Calm,Calm,-,N/A,,Clear,0,2013-10-18 22:55:00
7:15 PM,55.6,46.4,71,30.03,10.0,Calm,Calm,-,N/A,,Clear,0,2013-10-18 23:15:00
7:35 PM,54.7,47.1,76,30.04,10.0,Calm,Calm,-,N/A,,Clear,0,2013-10-18 23:35:00
7:55 PM,53.1,47.3,81,30.04,10.0,Calm,Calm,-,N/A,,Clear,0,2013-10-18 23:55:00
8:15 PM,52.7,47.3,82,30.04,10.0,Calm,Calm,-,N/A,,Scattered Clouds,0,2013-10-19 00:15:00
8:35 PM,52.3,47.3,83,30.04,10.0,Calm,Calm,-,N/A,,Mostly Cloudy,0,2013-10-19 00:35:00
8:55 PM,51.8,47.7,86,30.04,10.0,Calm,Calm,-,N/A,,Overcast,0,2013-10-19 00:55:00
9:15 PM,52.0,47.8,86,30.04,10.0,Calm,Calm,-,N/A,,Overcast,0,2013-10-19 01:15:00
9:35 PM,52.2,48.4,87,30.05,10.0,Calm,Calm,-,N/A,,Overcast,0,2013-10-19 01:35:00
9:55 PM,51.8,48.0,87,30.05,10.0,Calm,Calm,-,N/A,,Mostly Cloudy,0,2013-10-19 01:55:00
10:15 PM,50.9,47.7,89,30.04,10.0,Calm,Calm,-,N/A,,Scattered Clouds,0,2013-10-19 02:15:00
10:35 PM,49.5,47.3,92,30.04,10.0,Calm,Calm,-,N/A,,Clear,0,2013-10-19 02:35:00
10:55 PM,49.1,46.8,92,30.04,10.0,Calm,Calm,-,N/A,,Clear,0,2013-10-19 02:55:00
11:15 PM,48.9,48.0,97,30.04,10.0,Calm,Calm,-,N/A,,Mostly Cloudy,0,2013-10-19 03:15:00
11:35 PM,47.7,46.6,96,30.05,10.0,Calm,Calm,-,N/A,,Scattered Clouds,0,2013-10-19 03:35:00
11:55 PM,47.7,46.2,95,30.04,10.0,Calm,Calm,-,N/A,,Clear,0,2013-10-19 03:55:00